Year,Month,Day,Hour,Minute,Value (Times are PST for windgust in km/hr)
2010,01,18,00,00,1.60
2010,01,18,00,01,8.10
2010,01,18,00,02,24.20
2010,01,18,00,03,9.60
2010,01,18,00,04,6.40
2010,01,18,00,05,11.30
2010,01,18,00,06,16.10
2010,01,18,00,07,8.10
2010,01,18,00,08,9.60
2010,01,18,00,09,20.90
2010,01,18,00,10,9.60
2010,01,18,00,11,8.10
2010,01,18,00,12,8.10
2010,01,18,00,13,9.60
2010,01,18,00,14,11.30
2010,01,18,00,15,8.10
2010,01,18,00,16,3.20
2010,01,18,00,17,3.20
2010,01,18,00,18,11.30
2010,01,18,00,19,8.10
2010,01,18,00,20,24.20
2010,01,18,00,21,22.50
2010,01,18,00,22,17.70
2010,01,18,00,23,17.70
2010,01,18,00,24,33.80
2010,01,18,00,25,14.50
2010,01,18,00,26,27.40
2010,01,18,00,27,22.50
2010,01,18,00,28,29.00
2010,01,18,00,29,33.80
2010,01,18,00,30,24.20
2010,01,18,00,31,20.90
2010,01,18,00,32,12.90
2010,01,18,00,33,11.30
2010,01,18,00,34,22.50
2010,01,18,00,35,29.00
2010,01,18,00,36,20.90
2010,01,18,00,37,20.90
2010,01,18,00,38,29.00
2010,01,18,00,39,24.20
2010,01,18,00,40,11.30
2010,01,18,00,41,4.80
2010,01,18,00,42,22.50
2010,01,18,00,43,38.60
2010,01,18,00,44,16.10
2010,01,18,00,45,17.70
2010,01,18,00,46,30.60
2010,01,18,00,47,29.00
2010,01,18,00,48,14.50
2010,01,18,00,49,11.30
2010,01,18,00,50,24.20
2010,01,18,00,51,17.70
2010,01,18,00,52,4.80
2010,01,18,00,53,16.10
2010,01,18,00,54,20.90
2010,01,18,00,55,19.30
2010,01,18,00,56,24.20
2010,01,18,00,57,11.30
2010,01,18,00,58,17.70
2010,01,18,00,59,12.90
2010,01,18,01,00,11.30
2010,01,18,01,01,9.60
2010,01,18,01,02,14.50
2010,01,18,01,03,25.70
2010,01,18,01,04,24.20
2010,01,18,01,05,20.90
2010,01,18,01,06,30.60
2010,01,18,01,07,22.50
2010,01,18,01,08,17.70
2010,01,18,01,09,20.90
2010,01,18,01,10,32.20
2010,01,18,01,11,22.50
2010,01,18,01,12,20.90
2010,01,18,01,13,20.90
2010,01,18,01,14,19.30
2010,01,18,01,15,11.30
2010,01,18,01,16,11.30
2010,01,18,01,17,24.20
2010,01,18,01,18,25.70
2010,01,18,01,19,29.00
2010,01,18,01,20,11.30
2010,01,18,01,21,19.30
2010,01,18,01,22,25.70
2010,01,18,01,23,22.50
2010,01,18,01,24,14.50
2010,01,18,01,25,17.70
2010,01,18,01,26,17.70
2010,01,18,01,27,16.10
2010,01,18,01,28,14.50
2010,01,18,01,29,27.40
2010,01,18,01,30,22.50
2010,01,18,01,31,17.70
2010,01,18,01,32,24.20
2010,01,18,01,33,17.70
2010,01,18,01,34,16.10
2010,01,18,01,35,20.90
2010,01,18,01,36,32.20
2010,01,18,01,37,24.20
2010,01,18,01,38,9.60
2010,01,18,01,39,22.50
2010,01,18,01,40,30.60
2010,01,18,01,41,24.20
2010,01,18,01,42,20.90
2010,01,18,01,43,16.10
2010,01,18,01,44,19.30
2010,01,18,01,45,25.70
2010,01,18,01,46,24.20
2010,01,18,01,47,30.60
2010,01,18,01,48,24.20
2010,01,18,01,49,17.70
2010,01,18,01,50,29.00
2010,01,18,01,51,16.10
2010,01,18,01,52,19.30
2010,01,18,01,53,43.50
2010,01,18,01,54,17.70
2010,01,18,01,55,29.00
2010,01,18,01,56,24.20
2010,01,18,01,57,19.30
2010,01,18,01,58,30.60
2010,01,18,01,59,32.20
2010,01,18,02,00,25.70
2010,01,18,02,01,20.90
2010,01,18,02,02,33.80
2010,01,18,02,03,37.00
2010,01,18,02,04,16.10
2010,01,18,02,05,22.50
2010,01,18,02,06,27.40
2010,01,18,02,07,43.50
2010,01,18,02,08,22.50
2010,01,18,02,09,20.90
2010,01,18,02,10,35.40
2010,01,18,02,11,37.00
2010,01,18,02,12,45.10
2010,01,18,02,13,41.80
2010,01,18,02,14,48.30
2010,01,18,02,15,24.20
2010,01,18,02,16,22.50
2010,01,18,02,17,29.00
2010,01,18,02,18,33.80
2010,01,18,02,19,32.20
2010,01,18,02,20,40.20
2010,01,18,02,21,38.60
2010,01,18,02,22,51.50
2010,01,18,02,23,25.70
2010,01,18,02,24,32.20
2010,01,18,02,25,20.90
2010,01,18,02,26,38.60
2010,01,18,02,27,27.40
2010,01,18,02,28,24.20
2010,01,18,02,29,33.80
2010,01,18,02,30,53.10
2010,01,18,02,31,40.20
2010,01,18,02,32,22.50
2010,01,18,02,33,29.00
2010,01,18,02,34,30.60
2010,01,18,02,35,22.50
2010,01,18,02,36,35.40
2010,01,18,02,37,37.00
2010,01,18,02,38,30.60
2010,01,18,02,39,30.60
2010,01,18,02,40,25.70
2010,01,18,02,41,33.80
2010,01,18,02,42,32.20
2010,01,18,02,43,49.90
2010,01,18,02,44,40.20
2010,01,18,03,02,45.10
2010,01,18,03,03,30.60
2010,01,18,03,04,37.00
2010,01,18,03,05,30.60
2010,01,18,03,06,40.20
2010,01,18,03,07,25.70
2010,01,18,03,08,16.10
2010,01,18,03,09,27.40
2010,01,18,03,10,40.20
2010,01,18,03,11,24.20
2010,01,18,03,12,35.40
2010,01,18,03,13,33.80
2010,01,18,03,14,25.70
2010,01,18,03,15,22.50
2010,01,18,03,16,37.00
2010,01,18,03,17,43.50
2010,01,18,03,18,37.00
2010,01,18,03,19,24.20
2010,01,18,03,20,19.30
2010,01,18,03,21,9.60
2010,01,18,03,22,33.80
2010,01,18,03,23,22.50
2010,01,18,03,24,45.10
2010,01,18,03,25,27.40
2010,01,18,03,26,29.00
2010,01,18,03,27,27.40
2010,01,18,03,28,46.70
2010,01,18,03,29,56.30
2010,01,18,03,30,46.70
2010,01,18,03,31,32.20
2010,01,18,03,32,20.90
2010,01,18,03,33,30.60
2010,01,18,03,34,24.20
2010,01,18,03,35,38.60
2010,01,18,03,36,30.60
2010,01,18,03,37,32.20
2010,01,18,03,38,32.20
2010,01,18,03,39,27.40
2010,01,18,03,40,37.00
2010,01,18,03,41,30.60
2010,01,18,03,42,30.60
2010,01,18,03,43,37.00
2010,01,18,03,44,22.50
2010,01,18,03,45,37.00
2010,01,18,03,46,48.30
2010,01,18,03,47,30.60
2010,01,18,03,48,14.50
2010,01,18,03,49,22.50
2010,01,18,03,50,16.10
2010,01,18,03,51,16.10
2010,01,18,03,52,22.50
2010,01,18,03,53,27.40
2010,01,18,03,54,30.60
2010,01,18,03,55,41.80
2010,01,18,03,56,41.80
2010,01,18,03,57,14.50
2010,01,18,03,58,12.90
2010,01,18,03,59,20.90
2010,01,18,04,00,35.40
2010,01,18,04,01,22.50
2010,01,18,04,02,24.20
2010,01,18,04,03,9.60
2010,01,18,04,04,9.60
2010,01,18,04,05,25.70
2010,01,18,04,06,43.50
2010,01,18,04,07,35.40
2010,01,18,04,08,30.60
2010,01,18,04,09,16.10
2010,01,18,04,10,16.10
2010,01,18,04,11,24.20
2010,01,18,04,12,37.00
2010,01,18,04,13,32.20
2010,01,18,04,14,27.40
2010,01,18,04,15,37.00
2010,01,18,04,16,19.30
2010,01,18,04,17,30.60
2010,01,18,04,18,24.20
2010,01,18,04,19,19.30
2010,01,18,04,20,20.90
2010,01,18,04,21,25.70
2010,01,18,04,22,17.70
2010,01,18,04,23,25.70
2010,01,18,04,24,22.50
2010,01,18,04,25,38.60
2010,01,18,04,26,19.30
2010,01,18,04,27,37.00
2010,01,18,04,28,24.20
2010,01,18,04,29,9.60
2010,01,18,04,30,19.30
2010,01,18,04,31,24.20
2010,01,18,04,32,9.60
2010,01,18,04,33,4.80
2010,01,18,04,34,27.40
2010,01,18,04,35,19.30
2010,01,18,04,36,22.50
2010,01,18,04,37,35.40
2010,01,18,04,38,20.90
2010,01,18,04,39,29.00
2010,01,18,04,40,16.10
2010,01,18,04,41,27.40
2010,01,18,04,42,19.30
2010,01,18,04,43,17.70
2010,01,18,04,44,24.20
2010,01,18,04,45,22.50
2010,01,18,04,46,20.90
2010,01,18,04,47,32.20
2010,01,18,04,48,24.20
2010,01,18,04,49,12.90
2010,01,18,04,50,24.20
2010,01,18,04,51,35.40
2010,01,18,04,52,29.00
2010,01,18,04,53,22.50
2010,01,18,04,54,22.50
2010,01,18,04,55,30.60
2010,01,18,04,56,25.70
2010,01,18,04,57,22.50
2010,01,18,04,58,16.10
2010,01,18,04,59,20.90
2010,01,18,05,00,19.30
2010,01,18,05,01,22.50
2010,01,18,05,02,35.40
2010,01,18,05,03,54.70
2010,01,18,05,04,54.70
2010,01,18,05,05,29.00
2010,01,18,05,06,29.00
2010,01,18,05,07,43.50
2010,01,18,05,08,41.80
2010,01,18,05,09,16.10
2010,01,18,05,10,49.90
2010,01,18,05,11,40.20
2010,01,18,05,12,29.00
2010,01,18,05,13,30.60
2010,01,18,05,14,40.20
2010,01,18,05,15,20.90
2010,01,18,05,16,22.50
2010,01,18,05,17,25.70
2010,01,18,05,18,24.20
2010,01,18,05,19,27.40
2010,01,18,05,20,41.80
2010,01,18,05,21,32.20
2010,01,18,05,22,43.50
2010,01,18,05,23,24.20
2010,01,18,05,24,38.60
2010,01,18,05,25,32.20
2010,01,18,05,26,22.50
2010,01,18,05,27,41.80
2010,01,18,05,28,38.60
2010,01,18,05,29,16.10
2010,01,18,05,30,27.40
2010,01,18,05,31,29.00
2010,01,18,05,32,22.50
2010,01,18,05,33,22.50
2010,01,18,05,34,22.50
2010,01,18,05,35,22.50
2010,01,18,05,36,30.60
2010,01,18,05,37,30.60
2010,01,18,05,38,27.40
2010,01,18,05,39,32.20
2010,01,18,05,40,41.80
2010,01,18,05,41,33.80
2010,01,18,05,42,25.70
2010,01,18,05,43,33.80
2010,01,18,05,44,43.50
2010,01,18,05,45,20.90
2010,01,18,05,46,22.50
2010,01,18,05,47,19.30
2010,01,18,05,48,27.40
2010,01,18,05,49,33.80
2010,01,18,05,50,14.50
2010,01,18,05,51,27.40
2010,01,18,05,52,37.00
2010,01,18,05,53,20.90
2010,01,18,05,54,22.50
2010,01,18,05,55,11.30
2010,01,18,05,56,14.50
2010,01,18,05,57,19.30
2010,01,18,05,58,20.90
2010,01,18,05,59,6.40
2010,01,18,06,00,16.10
2010,01,18,06,01,22.50
2010,01,18,06,02,20.90
2010,01,18,06,03,19.30
2010,01,18,06,04,9.60
2010,01,18,06,05,8.10
2010,01,18,06,06,29.00
2010,01,18,06,07,17.70
2010,01,18,06,08,6.40
2010,01,18,06,09,24.20
2010,01,18,06,10,16.10
2010,01,18,06,11,32.20
2010,01,18,06,12,24.20
2010,01,18,06,13,22.50
2010,01,18,06,14,17.70
2010,01,18,06,15,8.10
2010,01,18,06,16,16.10
2010,01,18,06,17,24.20
2010,01,18,06,18,22.50
2010,01,18,06,19,9.60
2010,01,18,06,20,9.60
2010,01,18,06,21,11.30
2010,01,18,06,22,19.30
2010,01,18,06,23,19.30
2010,01,18,06,24,20.90
2010,01,18,06,25,19.30
2010,01,18,06,26,14.50
2010,01,18,06,27,17.70
2010,01,18,06,28,25.70
2010,01,18,06,29,12.90
2010,01,18,06,30,11.30
2010,01,18,06,31,20.90
2010,01,18,06,32,22.50
2010,01,18,06,33,27.40
2010,01,18,06,34,14.50
2010,01,18,06,35,14.50
2010,01,18,06,36,11.30
2010,01,18,06,37,22.50
2010,01,18,06,38,16.10
2010,01,18,06,39,11.30
2010,01,18,06,40,20.90
2010,01,18,06,41,16.10
2010,01,18,06,42,16.10
2010,01,18,06,43,19.30
2010,01,18,06,44,17.70
2010,01,18,06,45,22.50
2010,01,18,06,46,27.40
2010,01,18,06,47,29.00
2010,01,18,06,48,20.90
2010,01,18,06,49,22.50
2010,01,18,06,50,22.50
2010,01,18,06,51,11.30
2010,01,18,06,52,35.40
2010,01,18,06,53,20.90
2010,01,18,06,54,14.50
2010,01,18,06,55,11.30
2010,01,18,06,56,16.10
2010,01,18,06,57,25.70
2010,01,18,06,58,17.70
2010,01,18,06,59,22.50
2010,01,18,07,00,14.50
2010,01,18,07,01,17.70
2010,01,18,07,02,14.50
2010,01,18,07,03,19.30
2010,01,18,07,04,8.10
2010,01,18,07,05,20.90
2010,01,18,07,06,16.10
2010,01,18,07,07,16.10
2010,01,18,07,08,11.30
2010,01,18,07,09,14.50
2010,01,18,07,10,25.70
2010,01,18,07,11,17.70
2010,01,18,07,12,17.70
2010,01,18,07,13,22.50
2010,01,18,07,14,27.40
2010,01,18,07,15,14.50
2010,01,18,07,16,11.30
2010,01,18,07,17,11.30
2010,01,18,07,18,14.50
2010,01,18,07,19,19.30
2010,01,18,07,20,19.30
2010,01,18,07,21,9.60
2010,01,18,07,22,9.60
2010,01,18,07,23,19.30
2010,01,18,07,24,20.90
2010,01,18,07,25,19.30
2010,01,18,07,26,20.90
2010,01,18,07,27,11.30
2010,01,18,07,28,20.90
2010,01,18,07,29,17.70
2010,01,18,07,30,17.70
2010,01,18,07,31,16.10
2010,01,18,07,32,11.30
2010,01,18,07,33,6.40
2010,01,18,07,34,17.70
2010,01,18,07,35,16.10
2010,01,18,07,36,14.50
2010,01,18,07,37,20.90
2010,01,18,07,38,14.50
2010,01,18,07,39,11.30
2010,01,18,07,40,8.10
2010,01,18,07,41,11.30
2010,01,18,07,42,27.40
2010,01,18,07,43,20.90
2010,01,18,07,44,14.50
2010,01,18,07,45,4.80
2010,01,18,07,46,17.70
2010,01,18,07,47,16.10
2010,01,18,07,48,16.10
2010,01,18,07,49,8.10
2010,01,18,07,50,25.70
2010,01,18,07,51,14.50
2010,01,18,07,52,9.60
2010,01,18,07,53,9.60
2010,01,18,07,54,12.90
2010,01,18,07,55,16.10
2010,01,18,07,56,14.50
2010,01,18,07,57,16.10
2010,01,18,07,58,14.50
2010,01,18,07,59,8.10
2010,01,18,08,00,16.10
2010,01,18,08,01,8.10
2010,01,18,08,02,8.10
2010,01,18,08,03,9.60
2010,01,18,08,04,9.60
2010,01,18,08,05,9.60
2010,01,18,08,06,12.90
2010,01,18,08,07,16.10
2010,01,18,08,08,6.40
2010,01,18,08,09,17.70
2010,01,18,08,10,14.50
2010,01,18,08,11,14.50
2010,01,18,08,12,11.30
2010,01,18,08,13,14.50
2010,01,18,08,14,11.30
2010,01,18,08,15,17.70
2010,01,18,08,16,17.70
2010,01,18,08,17,9.60
2010,01,18,08,18,1.60
2010,01,18,08,19,17.70
2010,01,18,08,20,16.10
2010,01,18,08,21,12.90
2010,01,18,08,22,6.40
2010,01,18,08,23,14.50
2010,01,18,08,24,11.30
2010,01,18,08,25,11.30
2010,01,18,08,26,11.30
2010,01,18,08,27,11.30
2010,01,18,08,28,8.10
2010,01,18,08,29,11.30
2010,01,18,08,30,14.50
2010,01,18,08,31,9.60
2010,01,18,08,32,6.40
2010,01,18,08,33,9.60
2010,01,18,08,34,8.10
2010,01,18,08,35,8.10
2010,01,18,08,36,9.60
2010,01,18,08,37,4.80
2010,01,18,08,38,1.60
2010,01,18,08,39,16.10
2010,01,18,08,40,25.70
2010,01,18,08,41,12.90
2010,01,18,08,42,4.80
2010,01,18,08,43,4.80
2010,01,18,08,44,9.60
2010,01,18,08,45,9.60
2010,01,18,08,46,11.30
2010,01,18,08,47,8.10
2010,01,18,08,48,4.80
2010,01,18,08,49,14.50
2010,01,18,08,50,9.60
2010,01,18,08,51,9.60
2010,01,18,08,52,6.40
2010,01,18,08,53,9.60
2010,01,18,08,54,9.60
2010,01,18,08,55,6.40
2010,01,18,08,56,8.10
2010,01,18,08,57,3.20
2010,01,18,08,58,3.20
2010,01,18,08,59,4.80
2010,01,18,09,00,8.10
2010,01,18,09,01,6.40
2010,01,18,09,02,6.40
2010,01,18,09,03,12.90
2010,01,18,09,04,19.30
2010,01,18,09,05,9.60
2010,01,18,09,06,16.10
2010,01,18,09,07,9.60
2010,01,18,09,08,22.50
2010,01,18,09,09,19.30
2010,01,18,09,10,17.70
2010,01,18,09,11,8.10
2010,01,18,09,12,9.60
2010,01,18,09,13,14.50
2010,01,18,09,14,22.50
2010,01,18,09,15,20.90
2010,01,18,09,16,17.70
2010,01,18,09,17,19.30
2010,01,18,09,18,4.80
2010,01,18,09,19,16.10
2010,01,18,09,20,11.30
2010,01,18,09,21,6.40
2010,01,18,09,22,3.20
2010,01,18,09,23,3.20
2010,01,18,09,24,16.10
2010,01,18,09,25,9.60
2010,01,18,09,26,8.10
2010,01,18,09,27,8.10
2010,01,18,09,28,1.60
2010,01,18,09,29,3.20
2010,01,18,09,30,9.60
2010,01,18,09,31,9.60
2010,01,18,09,32,4.80
2010,01,18,09,33,4.80
2010,01,18,09,34,6.40
2010,01,18,09,35,6.40
2010,01,18,09,36,8.10
2010,01,18,09,37,8.10
2010,01,18,09,38,11.30
2010,01,18,09,39,29.00
2010,01,18,09,40,24.20
2010,01,18,09,41,17.70
2010,01,18,09,42,9.60
2010,01,18,09,43,11.30
2010,01,18,09,44,9.60
2010,01,18,09,45,11.30
2010,01,18,09,46,4.80
2010,01,18,09,47,16.10
2010,01,18,09,48,9.60
2010,01,18,09,49,12.90
2010,01,18,09,50,19.30
2010,01,18,09,51,4.80
2010,01,18,09,52,1.60
2010,01,18,09,53,4.80
2010,01,18,09,54,6.40
2010,01,18,09,55,11.30
2010,01,18,09,56,17.70
2010,01,18,09,57,16.10
2010,01,18,09,58,9.60
2010,01,18,09,59,17.70
2010,01,18,10,00,9.60
2010,01,18,10,01,8.10
2010,01,18,10,02,25.70
2010,01,18,10,03,8.10
2010,01,18,10,04,8.10
2010,01,18,10,05,17.70
2010,01,18,10,06,9.60
2010,01,18,10,07,4.80
2010,01,18,10,08,8.10
2010,01,18,10,09,6.40
2010,01,18,10,10,4.80
2010,01,18,10,11,9.60
2010,01,18,10,12,16.10
2010,01,18,10,13,14.50
2010,01,18,10,14,16.10
2010,01,18,10,15,9.60
2010,01,18,10,16,11.30
2010,01,18,10,17,17.70
2010,01,18,10,18,14.50
2010,01,18,10,19,16.10
2010,01,18,10,20,9.60
2010,01,18,10,21,3.20
2010,01,18,10,22,6.40
2010,01,18,10,23,4.80
2010,01,18,10,24,4.80
2010,01,18,10,25,9.60
2010,01,18,10,26,9.60
2010,01,18,10,27,9.60
2010,01,18,10,28,6.40
2010,01,18,10,29,14.50
2010,01,18,10,30,6.40
2010,01,18,10,31,8.10
2010,01,18,10,32,8.10
2010,01,18,10,33,8.10
2010,01,18,10,34,6.40
2010,01,18,10,35,6.40
2010,01,18,10,36,4.80
2010,01,18,10,37,4.80
2010,01,18,10,38,3.20
2010,01,18,10,39,8.10
2010,01,18,10,40,19.30
2010,01,18,10,41,9.60
2010,01,18,10,42,11.30
2010,01,18,10,43,16.10
2010,01,18,10,44,11.30
2010,01,18,10,45,14.50
2010,01,18,10,46,11.30
2010,01,18,10,47,14.50
2010,01,18,10,48,4.80
2010,01,18,10,49,14.50
2010,01,18,10,50,27.40
2010,01,18,10,51,14.50
2010,01,18,10,52,4.80
2010,01,18,10,53,11.30
2010,01,18,10,54,16.10
2010,01,18,10,55,11.30
2010,01,18,10,56,11.30
2010,01,18,10,57,8.10
2010,01,18,10,58,11.30
2010,01,18,10,59,8.10
2010,01,18,11,00,16.10
2010,01,18,11,01,12.90
2010,01,18,11,02,11.30
2010,01,18,11,03,17.70
2010,01,18,11,04,17.70
2010,01,18,11,05,9.60
2010,01,18,11,06,9.60
2010,01,18,11,07,14.50
2010,01,18,11,08,9.60
2010,01,18,11,09,3.20
2010,01,18,11,10,16.10
2010,01,18,11,11,4.80
2010,01,18,11,12,0.00
2010,01,18,11,13,1.60
2010,01,18,11,14,6.40
2010,01,18,11,15,11.30
2010,01,18,11,16,6.40
2010,01,18,11,17,6.40
2010,01,18,11,18,8.10
2010,01,18,11,19,4.80
2010,01,18,11,20,9.60
2010,01,18,11,21,16.10
2010,01,18,11,22,9.60
2010,01,18,11,23,11.30
2010,01,18,11,24,16.10
2010,01,18,11,25,9.60
2010,01,18,11,26,9.60
2010,01,18,11,27,8.10
2010,01,18,11,28,11.30
2010,01,18,11,29,4.80
2010,01,18,11,30,3.20
2010,01,18,11,31,3.20
2010,01,18,11,32,4.80
2010,01,18,11,33,4.80
2010,01,18,11,34,6.40
2010,01,18,11,35,4.80
2010,01,18,11,36,4.80
2010,01,18,11,37,6.40
2010,01,18,11,38,4.80
2010,01,18,11,39,4.80
2010,01,18,11,40,8.10
2010,01,18,11,41,4.80
2010,01,18,11,42,1.60
2010,01,18,11,43,4.80
2010,01,18,11,44,6.40
2010,01,18,11,45,3.20
2010,01,18,11,46,6.40
2010,01,18,11,47,3.20
2010,01,18,11,48,1.60
2010,01,18,11,49,1.60
2010,01,18,11,50,1.60
2010,01,18,11,51,1.60
2010,01,18,11,52,1.60
2010,01,18,11,53,1.60
2010,01,18,11,54,1.60
2010,01,18,11,55,1.60
2010,01,18,11,56,1.60
2010,01,18,11,57,0.00
2010,01,18,11,58,0.00
2010,01,18,11,59,0.00
2010,01,18,12,00,0.00
2010,01,18,12,01,0.00
2010,01,18,12,02,0.00
2010,01,18,12,03,1.60
2010,01,18,12,04,1.60
2010,01,18,12,05,1.60
2010,01,18,12,06,3.20
2010,01,18,12,07,3.20
2010,01,18,12,08,3.20
2010,01,18,12,09,1.60
2010,01,18,12,10,1.60
2010,01,18,12,11,1.60
2010,01,18,12,12,8.10
2010,01,18,12,13,9.60
2010,01,18,12,14,8.10
2010,01,18,12,15,3.20
2010,01,18,12,16,0.00
2010,01,18,12,17,6.40
2010,01,18,12,18,8.10
2010,01,18,12,19,3.20
2010,01,18,12,20,4.80
2010,01,18,12,21,4.80
2010,01,18,12,22,3.20
2010,01,18,12,23,4.80
2010,01,18,12,24,9.60
2010,01,18,12,25,4.80
2010,01,18,12,26,6.40
2010,01,18,12,27,3.20
2010,01,18,12,28,4.80
2010,01,18,12,29,4.80
2010,01,18,12,30,1.60
2010,01,18,12,31,4.80
2010,01,18,12,32,12.90
2010,01,18,12,33,8.10
2010,01,18,12,34,6.40
2010,01,18,12,35,4.80
2010,01,18,12,36,8.10
2010,01,18,12,37,8.10
2010,01,18,12,38,4.80
2010,01,18,12,39,3.20
2010,01,18,12,40,9.60
2010,01,18,12,41,8.10
2010,01,18,12,42,9.60
2010,01,18,12,43,17.70
2010,01,18,12,44,12.90
2010,01,18,12,45,8.10
2010,01,18,12,46,4.80
2010,01,18,12,47,11.30
2010,01,18,12,48,9.60
2010,01,18,12,49,4.80
2010,01,18,12,50,8.10
2010,01,18,12,51,4.80
2010,01,18,12,52,4.80
2010,01,18,12,53,4.80
2010,01,18,12,54,6.40
2010,01,18,12,55,3.20
2010,01,18,12,56,6.40
2010,01,18,12,57,4.80
2010,01,18,12,58,3.20
2010,01,18,12,59,4.80
2010,01,18,13,00,1.60
2010,01,18,13,01,3.20
2010,01,18,13,02,3.20
2010,01,18,13,03,4.80
2010,01,18,13,04,8.10
2010,01,18,13,05,4.80
2010,01,18,13,06,3.20
2010,01,18,13,07,3.20
2010,01,18,13,08,3.20
2010,01,18,13,09,3.20
2010,01,18,13,10,4.80
2010,01,18,13,11,4.80
2010,01,18,13,12,3.20
2010,01,18,13,13,1.60
2010,01,18,13,14,3.20
2010,01,18,13,15,1.60
2010,01,18,13,16,1.60
2010,01,18,13,17,0.00
2010,01,18,13,18,1.60
2010,01,18,13,19,1.60
2010,01,18,13,20,0.00
2010,01,18,13,21,0.00
2010,01,18,13,22,1.60
2010,01,18,13,23,1.60
2010,01,18,13,24,0.00
2010,01,18,13,25,0.00
2010,01,18,13,26,1.60
2010,01,18,13,27,0.00
2010,01,18,13,28,1.60
2010,01,18,13,29,3.20
2010,01,18,13,30,0.00
2010,01,18,13,31,1.60
2010,01,18,13,32,4.80
2010,01,18,13,33,4.80
2010,01,18,13,34,3.20
2010,01,18,13,35,0.00
2010,01,18,13,36,1.60
2010,01,18,13,37,0.00
2010,01,18,13,38,1.60
2010,01,18,13,39,1.60
2010,01,18,13,40,3.20
2010,01,18,13,41,3.20
2010,01,18,13,42,3.20
2010,01,18,13,43,3.20
2010,01,18,13,44,3.20
2010,01,18,13,45,3.20
2010,01,18,13,46,1.60
2010,01,18,13,47,0.00
2010,01,18,13,48,0.00
2010,01,18,13,49,0.00
2010,01,18,13,50,0.00
2010,01,18,13,51,0.00
2010,01,18,13,52,0.00
2010,01,18,13,53,1.60
2010,01,18,13,54,1.60
2010,01,18,13,55,1.60
2010,01,18,13,56,1.60
2010,01,18,13,57,1.60
2010,01,18,13,58,1.60
2010,01,18,13,59,0.00
2010,01,18,14,00,1.60
2010,01,18,14,01,1.60
2010,01,18,14,02,1.60
2010,01,18,14,03,0.00
2010,01,18,14,04,1.60
2010,01,18,14,05,1.60
2010,01,18,14,06,0.00
2010,01,18,14,07,1.60
2010,01,18,14,08,0.00
2010,01,18,14,09,0.00
2010,01,18,14,10,0.00
2010,01,18,14,11,0.00
2010,01,18,14,12,0.00
2010,01,18,14,13,1.60
2010,01,18,14,14,1.60
2010,01,18,14,15,1.60
2010,01,18,14,16,1.60
2010,01,18,14,17,1.60
2010,01,18,14,18,1.60
2010,01,18,14,19,1.60
2010,01,18,14,20,1.60
2010,01,18,14,21,1.60
2010,01,18,14,22,3.20
2010,01,18,14,23,1.60
2010,01,18,14,24,3.20
2010,01,18,14,25,0.00
2010,01,18,14,26,0.00
2010,01,18,14,27,0.00
2010,01,18,14,28,1.60
2010,01,18,14,29,1.60
2010,01,18,14,30,1.60
2010,01,18,14,31,1.60
2010,01,18,14,32,1.60
2010,01,18,14,33,1.60
2010,01,18,14,34,0.00
2010,01,18,14,35,0.00
2010,01,18,14,36,0.00
2010,01,18,14,37,0.00
2010,01,18,14,38,0.00
2010,01,18,14,39,0.00
2010,01,18,14,40,0.00
2010,01,18,14,41,0.00
2010,01,18,14,42,0.00
2010,01,18,14,43,0.00
2010,01,18,14,44,0.00
2010,01,18,14,45,0.00
2010,01,18,14,46,0.00
2010,01,18,14,47,1.60
2010,01,18,14,48,0.00
2010,01,18,14,49,1.60
2010,01,18,14,50,1.60
2010,01,18,14,51,3.20
2010,01,18,14,52,3.20
2010,01,18,14,53,3.20
2010,01,18,14,54,3.20
2010,01,18,14,55,1.60
2010,01,18,14,56,1.60
2010,01,18,14,57,1.60
2010,01,18,14,58,1.60
2010,01,18,14,59,1.60
2010,01,18,15,00,1.60
2010,01,18,15,01,1.60
2010,01,18,15,02,1.60
2010,01,18,15,03,1.60
2010,01,18,15,04,1.60
2010,01,18,15,05,1.60
2010,01,18,15,06,0.00
2010,01,18,15,07,0.00
2010,01,18,15,08,0.00
2010,01,18,15,09,0.00
2010,01,18,15,10,0.00
2010,01,18,15,11,0.00
2010,01,18,15,12,0.00
2010,01,18,15,13,0.00
2010,01,18,15,14,1.60
2010,01,18,15,15,1.60
2010,01,18,15,16,3.20
2010,01,18,15,17,3.20
2010,01,18,15,18,1.60
2010,01,18,15,19,1.60
2010,01,18,15,20,1.60
2010,01,18,15,21,1.60
2010,01,18,15,22,1.60
2010,01,18,15,23,1.60
2010,01,18,15,24,1.60
2010,01,18,15,25,1.60
2010,01,18,15,26,1.60
2010,01,18,15,27,1.60
2010,01,18,15,28,1.60
2010,01,18,15,29,1.60
2010,01,18,15,30,0.00
2010,01,18,15,31,0.00
2010,01,18,15,32,1.60
2010,01,18,15,33,0.00
2010,01,18,15,34,0.00
2010,01,18,15,35,0.00
2010,01,18,15,36,1.60
2010,01,18,15,37,0.00
2010,01,18,15,38,0.00
2010,01,18,15,39,1.60
2010,01,18,15,40,1.60
2010,01,18,15,41,1.60
2010,01,18,15,42,1.60
2010,01,18,15,43,1.60
2010,01,18,15,44,1.60
2010,01,18,15,45,1.60
2010,01,18,15,46,0.00
2010,01,18,15,47,0.00
2010,01,18,15,48,1.60
2010,01,18,15,49,1.60
2010,01,18,15,50,3.20
2010,01,18,15,51,3.20
2010,01,18,15,52,1.60
2010,01,18,15,53,1.60
2010,01,18,15,54,1.60
2010,01,18,15,55,0.00
2010,01,18,15,56,0.00
2010,01,18,15,57,0.00
2010,01,18,15,58,0.00
2010,01,18,15,59,1.60
2010,01,18,16,00,0.00
2010,01,18,16,01,1.60
2010,01,18,16,02,1.60
2010,01,18,16,03,3.20
2010,01,18,16,04,1.60
2010,01,18,16,05,1.60
2010,01,18,16,06,1.60
2010,01,18,16,07,0.00
2010,01,18,16,08,1.60
2010,01,18,16,09,1.60
2010,01,18,16,10,3.20
2010,01,18,16,11,4.80
2010,01,18,16,12,4.80
2010,01,18,16,13,3.20
2010,01,18,16,14,1.60
2010,01,18,16,15,0.00
2010,01,18,16,16,1.60
2010,01,18,16,17,1.60
2010,01,18,16,18,3.20
2010,01,18,16,19,3.20
2010,01,18,16,20,3.20
2010,01,18,16,21,1.60
2010,01,18,16,22,1.60
2010,01,18,16,23,3.20
2010,01,18,16,24,3.20
2010,01,18,16,25,3.20
2010,01,18,16,26,1.60
2010,01,18,16,27,1.60
2010,01,18,16,28,1.60
2010,01,18,16,29,1.60
2010,01,18,16,30,1.60
2010,01,18,16,31,1.60
2010,01,18,16,32,1.60
2010,01,18,16,33,3.20
2010,01,18,16,34,1.60
2010,01,18,16,35,1.60
2010,01,18,16,36,1.60
2010,01,18,16,37,1.60
2010,01,18,16,38,1.60
2010,01,18,16,39,1.60
2010,01,18,16,40,1.60
2010,01,18,16,41,1.60
2010,01,18,16,42,1.60
2010,01,18,16,43,1.60
2010,01,18,16,44,1.60
2010,01,18,16,45,1.60
2010,01,18,16,46,1.60
2010,01,18,16,47,1.60
2010,01,18,16,48,0.00
2010,01,18,16,49,0.00
2010,01,18,16,50,0.00
2010,01,18,16,51,0.00
2010,01,18,16,52,1.60
2010,01,18,16,53,1.60
2010,01,18,16,54,3.20
2010,01,18,16,55,3.20
2010,01,18,16,56,0.00
2010,01,18,16,57,0.00
2010,01,18,16,58,1.60
2010,01,18,16,59,0.00
2010,01,18,17,00,0.00
2010,01,18,17,01,0.00
2010,01,18,17,02,0.00
2010,01,18,17,03,1.60
2010,01,18,17,04,0.00
2010,01,18,17,05,0.00
2010,01,18,17,06,0.00
2010,01,18,17,07,0.00
2010,01,18,17,08,0.00
2010,01,18,17,09,1.60
2010,01,18,17,10,0.00
2010,01,18,17,11,1.60
2010,01,18,17,12,3.20
2010,01,18,17,13,1.60
2010,01,18,17,14,1.60
2010,01,18,17,15,0.00
2010,01,18,17,16,1.60
2010,01,18,17,17,0.00
2010,01,18,17,18,0.00
2010,01,18,17,19,0.00
2010,01,18,17,20,1.60
2010,01,18,17,21,1.60
2010,01,18,17,22,0.00
2010,01,18,17,23,0.00
2010,01,18,17,24,1.60
2010,01,18,17,25,0.00
2010,01,18,17,26,0.00
2010,01,18,17,27,0.00
2010,01,18,17,28,1.60
2010,01,18,17,29,1.60
2010,01,18,17,30,0.00
2010,01,18,17,31,0.00
2010,01,18,17,32,1.60
2010,01,18,17,33,1.60
2010,01,18,17,34,1.60
2010,01,18,17,35,0.00
2010,01,18,17,36,1.60
2010,01,18,17,37,1.60
2010,01,18,17,38,0.00
2010,01,18,17,39,0.00
2010,01,18,17,40,0.00
2010,01,18,17,41,0.00
2010,01,18,17,42,1.60
2010,01,18,17,43,0.00
2010,01,18,17,44,0.00
2010,01,18,17,45,0.00
2010,01,18,17,46,1.60
2010,01,18,17,47,1.60
2010,01,18,17,48,1.60
2010,01,18,17,49,1.60
2010,01,18,17,50,1.60
2010,01,18,17,51,0.00
2010,01,18,17,52,1.60
2010,01,18,17,53,1.60
2010,01,18,17,54,1.60
2010,01,18,17,55,1.60
2010,01,18,17,56,1.60
2010,01,18,17,57,1.60
2010,01,18,17,58,0.00
2010,01,18,17,59,1.60
2010,01,18,18,00,3.20